15min,AgWx,beryljct,423,04FEB2021:00:00:00,31.1,12.8,30.6,30.1,30.4,30.9,29.6,88,89,87,0.498,27.2,27.7,26.3,2.959,3.5,8.7,12,5.6,-0.00003,-0.00004,37.1,38.3,9,0,0,.,6.91,0.00,0.00
15min,AgWx,beryljct,423,04FEB2021:00:15:00,30.8,12.8,29.1,28.9,29.5,30.2,28.9,89,89,88,0.478,26.5,27.1,26.0,4.713,3.8,33,20,6.0,-0.00003,-0.00003,37.0,38.2,9,0,0,.,6.91,0.00,0.00
15min,AgWx,beryljct,423,04FEB2021:00:30:00,30.5,12.8,28.5,28.5,29.0,29.5,28.5,89,89,88,0.468,26.1,26.6,25.5,3.836,4.4,18,10,5.6,-0.00002,-0.00002,36.9,38.2,9,0,0,.,6.91,0.00,0.00
15min,AgWx,beryljct,423,04FEB2021:00:45:00,30.0,12.78,27.7,27.4,27.3,28.4,26.4,90,92,89,0.459,24.8,25.4,23.7,4.757,3.8,53,15,5.2,-0.00003,-0.00004,36.8,38.2,9,0,0,.,6.91,0.00,0.00
15min,AgWx,beryljct,423,04FEB2021:01:00:00,29.6,12.78,28.8,28.7,28.4,29.0,27.3,90,92,89,0.476,25.9,26.6,24.9,3.31,5.3,21,7.7,7.3,-0.00002,-0.00002,36.7,38.1,9,0,0,.,6.91,0.00,0.00
15min,AgWx,beryljct,423,04FEB2021:01:15:00,29.5,12.78,28.2,28.3,28.7,29.0,28.3,89,90,89,0.466,25.8,26.3,25.4,2.192,3.6,2.8,8.3,5.0,-0.00003,-0.00004,36.6,38.1,9,0,0,.,6.91,0.00,0.00
15min,AgWx,beryljct,423,04FEB2021:01:30:00,29.2,12.77,27.3,27.0,27.3,28.4,26.8,90,91,88,0.452,24.8,25.4,24.4,4.472,3.3,319,11,4.9,-0.00004,-0.00005,36.5,38.0,9,0,0,.,6.91,0.00,0.00
15min,AgWx,beryljct,423,04FEB2021:01:45:00,28.8,12.77,27.4,27.1,27.1,27.4,26.9,91,91,90,0.452,24.7,25.0,24.5,2.653,4.4,322,14,6.1,-0.00003,-0.00003,36.4,38.0,9,0,0,.,6.92,0.00,0.00
15min,AgWx,beryljct,423,04FEB2021:02:00:00,28.3,12.76,26.5,26.4,26.5,27.2,26.1,91,92,91,0.446,24.3,24.8,23.8,1.82,1.4,335,4.0,2.9,-0.00008,-0.00011,36.2,37.9,9,0,0,.,6.91,0.00,0.00
15min,AgWx,beryljct,423,04FEB2021:02:15:00,27.7,12.76,27.2,26.8,26.6,27.0,26.2,92,93,91,0.452,24.5,24.9,23.9,0.022,0.9,348,67,2.2,-0.00009,-0.00013,36.2,37.9,9,0,0,.,6.92,0.00,0.00
15min,AgWx,beryljct,423,04FEB2021:02:30:00,27.1,12.74,26.2,26.5,26.7,26.9,26.4,91,92,91,0.442,24.5,24.8,24.1,2.828,1.4,338,23,3.1,-0.00008,-0.00011,36.1,37.8,9,0,0,.,6.92,0.00,0.00
15min,AgWx,beryljct,423,04FEB2021:02:45:00,26.8,12.75,27.1,26.1,26.5,26.9,25.8,91,91,90,0.435,24.1,24.6,23.3,1.096,2.1,325,4.2,3.0,-0.00006,-0.00008,36.0,37.8,9,0,0,.,6.91,0.00,0.00
15min,AgWx,beryljct,423,04FEB2021:03:00:00,26.5,12.72,27.5,27.2,26.9,27.2,26.1,91,92,90,0.454,24.6,24.9,23.8,3.135,1.8,315,10,3.3,-0.00007,-0.00009,35.9,37.7,9,0,0,.,6.91,0.00,0.00
15min,AgWx,beryljct,423,04FEB2021:03:15:00,26.4,12.72,26.4,26.1,26.4,27.1,26.0,91,92,90,0.442,24.1,24.7,23.7,0.767,1.9,351,13,3.2,-0.00007,-0.00008,35.8,37.7,9,0,0,.,6.91,0.00,0.00
15min,AgWx,beryljct,423,04FEB2021:03:30:00,26.0,12.73,26.2,25.5,25.5,26.1,25.2,92,93,91,0.430,23.5,24.1,23.1,0,0.9,313,4.7,2.4,-0.00009,-0.00013,35.7,37.6,9,0,0,.,6.91,0.00,0.00
15min,AgWx,beryljct,423,04FEB2021:03:45:00,25.6,12.73,25.9,26.0,25.9,26.2,25.5,90,92,88,0.421,23.3,23.7,22.8,0,0.5,301,10,2.5,-0.00010,-0.00015,35.6,37.5,9,0,0,.,6.92,0.00,0.00
15min,AgWx,beryljct,423,04FEB2021:04:00:00,25.4,12.72,25.3,25.3,25.5,26.1,24.8,88,89,86,0.411,22.4,22.9,21.4,2.17,1.6,36,63,2.9,-0.00007,-0.00008,35.5,37.5,9,0,0,.,6.91,0.00,0.00
15min,AgWx,beryljct,423,04FEB2021:04:15:00,25.0,12.69,24.9,24.8,25.0,25.3,24.7,88,89,88,0.402,22.0,22.3,21.5,1.578,0.7,359,36,2.3,-0.00009,-0.00013,35.5,37.5,9,0,0,.,6.91,0.00,0.00
15min,AgWx,beryljct,423,04FEB2021:04:30:00,24.7,12.7,25.6,24.7,24.7,25.1,23.8,88,89,87,0.402,21.7,22.3,20.4,2.061,2.7,265,28,4.1,-0.00004,-0.00005,35.4,37.4,9,0,0,.,6.92,0.00,0.00
15min,AgWx,beryljct,423,04FEB2021:04:45:00,24.6,12.7,26.0,25.1,25.3,25.8,24.8,87,89,85,0.395,22.0,22.5,21.1,2.411,1.2,130,57,4.5,-0.00008,-0.00010,35.3,37.4,9,0,0,.,6.91,0.00,0.00
15min,AgWx,beryljct,423,04FEB2021:05:00:00,24.4,12.7,23.4,23.8,24.8,25.4,23.8,87,88,85,0.372,21.3,22.0,20.1,0.438,1.8,277,81,4.0,-0.00006,-0.00007,35.2,37.3,9,0,0,.,6.91,0.00,0.00
15min,AgWx,beryljct,423,04FEB2021:05:15:00,24.2,12.68,25.2,24.0,23.5,24.3,21.9,88,91,85,0.400,20.5,21.8,18.7,2.083,2.8,14,24,3.9,-0.00004,-0.00004,35.1,37.3,9,0,0,.,6.91,0.00,0.00
15min,AgWx,beryljct,423,04FEB2021:05:30:00,23.8,12.68,23.5,22.4,23.3,24.5,22.1,89,91,88,0.370,20.7,22.1,19.1,1.995,1.7,7.8,15,2.5,-0.00006,-0.00008,35.1,37.2,9,0,0,.,6.92,0.00,0.00
15min,AgWx,beryljct,423,04FEB2021:05:45:00,23.4,12.66,23.5,22.9,22.8,23.4,21.7,90,92,89,0.376,20.3,21.1,19.0,2.872,2.2,6.8,14,3.6,-0.00005,-0.00006,35.0,37.2,10,0,0,.,6.92,0.00,0.00
15min,AgWx,beryljct,423,04FEB2021:06:00:00,23.2,12.67,22.5,22.4,22.7,23.0,22.4,90,90,89,0.368,20.1,20.4,19.8,1.578,2.6,11,10,3.7,-0.00004,-0.00005,34.9,37.1,9,0,0,.,6.92,0.00,0.00
15min,AgWx,beryljct,423,04FEB2021:06:15:00,22.9,12.66,22.8,22.0,21.4,22.4,21.0,90,92,89,0.373,19.0,20.1,18.6,3.617,3.1,33,12,4.3,-0.00004,-0.00004,34.9,37.1,9,0,0,.,6.92,0.00,0.00
15min,AgWx,beryljct,423,04FEB2021:06:30:00,22.6,12.65,22.2,21.7,22.0,22.5,21.5,91,92,91,0.363,19.8,20.5,19.3,0.767,1.7,6.0,19,4.0,-0.00006,-0.00008,34.8,37.0,9,0,0,.,6.91,0.00,0.00
15min,AgWx,beryljct,423,04FEB2021:06:45:00,22.1,12.65,22.1,21.6,21.6,21.8,21.3,92,92,91,0.364,19.5,19.7,19.0,0,0.3,6.2,39,1.4,-0.00010,-0.00015,34.7,37.0,9,0,0,.,6.92,0.00,0.00
15min,AgWx,beryljct,423,04FEB2021:07:00:00,21.7,12.64,20.8,21.4,21.7,22.1,21.3,92,92,91,0.362,19.7,20.2,19.1,1.71,1.1,352,32,2.2,0.00002,0.00002,34.6,36.9,9,0,0,.,6.91,0.00,0.00
15min,AgWx,beryljct,423,04FEB2021:07:15:00,21.6,12.63,22.5,21.9,21.8,22.3,21.0,92,92,91,0.371,19.8,20.4,18.9,2.039,2.8,327,18,4.0,0.00003,0.00005,34.6,36.9,9,0,0,.,6.91,0.00,0.00
15min,AgWx,beryljct,423,04FEB2021:07:30:00,21.8,12.63,23.1,22.7,22.5,22.7,22.0,92,93,91,0.379,20.4,20.7,20.0,4.494,3.3,337,15,4.9,0.00004,0.00007,34.5,36.8,9,2,0,.,6.91,0.00,0.00
15min,AgWx,beryljct,423,04FEB2021:07:45:00,22.1,12.66,23.0,22.5,22.6,22.8,22.3,91,91,91,0.375,20.4,20.6,20.0,4.209,3.8,359,10,5.1,0.00007,0.00010,34.5,36.8,9,7,0,.,6.91,0.00,0.00
15min,AgWx,beryljct,423,04FEB2021:08:00:00,22.5,12.72,23.3,22.9,22.7,23.0,22.4,91,91,90,0.379,20.3,20.7,20.0,3.968,3.9,15,8.0,5.3,0.00013,0.00017,34.4,36.8,9,28,0,.,6.91,0.00,0.00
15min,AgWx,beryljct,423,04FEB2021:08:15:00,23.0,13.26,23.3,23.3,23.1,23.6,22.7,90,90,89,0.379,20.5,21.0,20.0,2.806,3.2,13,17,4.3,0.00025,0.00029,34.3,36.7,9,77,0,.,6.91,0.00,0.00
15min,AgWx,beryljct,423,04FEB2021:08:30:00,23.8,13.62,24.8,24.3,23.2,24.3,22.5,90,91,89,0.402,20.8,21.9,19.9,3.595,3.4,334,21,4.8,0.00030,0.00035,34.3,36.7,9,97,0,.,6.91,0.00,0.00
15min,AgWx,beryljct,423,04FEB2021:08:45:00,24.8,14.89,25.4,25.0,24.6,25.0,24.3,90,90,90,0.412,22.0,22.6,21.7,3.946,3.7,40,8.9,5.2,0.00037,0.00043,34.2,36.6,9,121,0,.,6.91,0.00,0.00
15min,AgWx,beryljct,423,04FEB2021:09:00:00,26.2,14.89,27.1,26.7,25.8,26.7,25.0,89,90,86,0.426,22.9,23.2,22.6,6.401,4.9,23,11,6.8,0.00058,0.00066,34.2,36.6,9,212,0,.,6.91,0.00,0.00
15min,AgWx,beryljct,423,04FEB2021:09:15:00,28.0,14.87,28.0,27.6,27.0,27.6,26.6,85,87,84,0.432,23.0,23.7,22.5,5.261,5.6,11,11,8.6,0.00073,0.00084,34.1,36.5,9,257,0,.,6.91,0.00,0.00
15min,AgWx,beryljct,423,04FEB2021:09:30:00,29.8,14.78,28.8,28.8,28.2,28.8,27.6,83,85,82,0.452,23.8,24.7,23.3,6.248,6.8,24,11,8.8,0.00086,0.00100,34.1,36.5,10,301,0,.,6.91,0.00,0.00
15min,AgWx,beryljct,423,04FEB2021:09:45:00,31.3,14.79,29.9,29.5,28.9,29.7,28.3,84,85,83,0.465,24.6,25.5,23.9,6.664,7.1,24,10,9.2,0.00097,0.00112,34.0,36.5,9,342,0,.,6.91,0.00,0.00
15min,AgWx,beryljct,423,04FEB2021:10:00:00,32.7,14.74,31.2,30.8,30.4,31.3,29.5,83,85,80,0.466,25.7,26.5,25.1,8.7,8.7,28,12,11.9,0.00107,0.00125,34.0,36.4,9,370,0,.,6.91,0.00,0.00
15min,AgWx,beryljct,423,04FEB2021:10:15:00,33.7,14.71,32.3,32.2,31.6,32.3,30.6,75,81,69,0.433,24.4,25.9,22.8,14.51,13.2,37,11,19.3,0.00124,0.00155,34.0,36.3,9,418,0,.,6.91,0.00,0.00
15min,AgWx,beryljct,423,04FEB2021:10:30:00,34.6,14.74,32.9,32.8,32.5,33.1,31.9,69,72,66,0.422,23.5,24.7,22.5,14.91,14.4,45,9.4,18.2,0.00145,0.00185,33.9,36.3,9,470,0,.,6.91,0.00,0.00
15min,AgWx,beryljct,423,04FEB2021:10:45:00,35.6,14.29,35.7,35.0,33.3,35.1,32.5,66,69,62,0.447,23.1,25.4,21.7,14.56,14.6,43,9.9,18.2,0.00182,0.00229,33.8,36.3,9,612,0,.,6.91,0.00,0.00
15min,AgWx,beryljct,423,04FEB2021:11:00:00,37.4,14.24,34.9,35.1,34.8,35.9,33.6,62,66,58,0.407,23.0,25.0,21.5,15.98,14.3,46,11,18.4,0.00231,0.00286,33.8,36.3,9,737,0,.,6.91,0.00,0.00
15min,AgWx,beryljct,423,04FEB2021:11:15:00,38.5,14.22,33.5,33.3,33.9,35.1,33.2,59,60,57,0.366,21.0,22.5,19.7,12.52,13.3,40,11,17.1,0.00158,0.00210,33.8,36.2,9,408,0,.,6.91,0.00,0.00
15min,AgWx,beryljct,423,04FEB2021:11:30:00,38.3,14.24,33.8,33.7,33.3,34.1,32.9,58,60,56,0.373,20.2,21.2,18.8,11.95,11.7,45,11,15.6,0.00137,0.00184,33.8,36.2,9,319,0,.,6.91,0.00,0.00
15min,AgWx,beryljct,423,04FEB2021:11:45:00,38.2,14.23,34.8,33.9,34.0,35.3,33.2,57,60,54,0.364,20.4,22.7,19.5,14.23,12.4,48,11,16.7,0.00181,0.00234,33.7,36.1,9,506,0,.,6.91,0.00,0.00
15min,AgWx,beryljct,423,04FEB2021:12:00:00,39.2,14.2,34.0,34.1,34.9,35.9,33.6,55,58,53,0.374,20.3,21.8,19.1,18.55,12.7,41,11,18.6,0.00223,0.00282,33.7,36.1,9,655,0,.,6.91,0.00,0.00
15min,AgWx,beryljct,423,04FEB2021:12:15:00,39.8,14.22,35.5,35.8,35.4,36.5,33.8,55,58,53,0.383,20.7,22.3,19.6,16.09,12.7,50,14,18.7,0.00234,0.00295,33.7,36.1,9,688,0,.,6.90,0.00,0.00
15min,AgWx,beryljct,423,04FEB2021:12:30:00,40.7,14.19,35.9,35.5,35.9,36.8,35.0,53,55,50,0.357,20.5,22.2,18.5,9.14,11.3,40,13,16.3,0.00263,0.00325,33.7,36.0,9,756,0,.,6.90,0.00,0.00
15min,AgWx,beryljct,423,04FEB2021:12:45:00,41.1,14.27,36.1,35.5,35.6,36.6,34.7,53,55,51,0.366,20.0,21.9,18.5,10.52,11.1,51,15,15.6,0.00216,0.00274,33.7,36.0,9,598,0,.,6.90,0.00,0.00
15min,AgWx,beryljct,423,04FEB2021:13:00:00,41.1,14.18,36.2,35.6,35.8,36.5,34.9,53,55,51,0.360,20.2,21.7,18.9,10.94,12.6,46,13,18.0,0.00227,0.00290,33.6,35.9,9,638,0,.,6.90,0.00,0.00
15min,AgWx,beryljct,423,04FEB2021:13:15:00,41.1,14.27,34.7,35.8,36.1,37.3,35.0,52,55,50,0.361,20.1,22.0,18.6,14.01,12.3,51,14,18.7,0.00238,0.00303,33.6,35.9,9,667,0,.,6.90,0.00,0.00
15min,AgWx,beryljct,423,04FEB2021:13:30:00,41.2,14.12,36.5,36.3,36.1,37.2,35.0,53,55,51,0.385,20.6,22.5,19.2,14.58,12.3,66,11,17.7,0.00217,0.00279,33.6,35.9,9,598,0,.,6.90,0.00,0.00
15min,AgWx,beryljct,423,04FEB2021:13:45:00,41.2,14.18,36.4,36.5,36.5,37.0,35.8,51,53,48,0.356,20.0,21.3,18.2,13.37,11.1,44,16,16.1,0.00231,0.00294,33.6,35.8,9,627,0,.,6.90,0.00,0.00
15min,AgWx,beryljct,423,04FEB2021:14:00:00,41.4,14.13,38.5,37.2,36.5,37.5,35.6,49,51,48,0.381,19.3,21.0,17.8,11.9,12.0,48,13,17.8,0.00216,0.00281,33.7,35.8,9,569,0,.,6.89,0.00,0.00
15min,AgWx,beryljct,423,04FEB2021:14:15:00,41.6,14.13,36.9,36.3,36.8,37.5,36.1,49,51,48,0.354,19.6,20.9,18.3,11.42,12.2,51,11,17.2,0.00221,0.00287,33.9,35.8,10,583,0,.,6.89,0.00,0.00
15min,AgWx,beryljct,423,04FEB2021:14:30:00,41.8,14.11,37.8,36.6,36.8,37.9,36.0,49,52,48,0.360,19.6,21.6,18.3,11.82,12.7,54,13,16.4,0.00210,0.00277,34.1,35.7,10,545,0,.,6.89,0.00,0.00
15min,AgWx,beryljct,423,04FEB2021:14:45:00,42.0,14.09,38.9,37.2,37.0,38.2,36.5,50,52,48,0.371,19.9,22.0,18.7,8.46,11.9,54,14,20.2,0.00205,0.00271,34.4,35.7,9,527,0,.,6.89,0.00,0.00
15min,AgWx,beryljct,423,04FEB2021:15:00:00,42.4,14.16,36.8,37.3,37.5,38.0,37.1,49,51,47,0.358,20.0,21.5,19.1,10.28,11.5,47,11,16.8,0.00203,0.00268,34.8,35.7,9,505,0,.,6.88,0.00,0.00
15min,AgWx,beryljct,423,04FEB2021:15:15:00,42.7,14.13,37.1,37.1,37.3,38.1,36.6,48,50,47,0.356,19.6,21.1,18.6,13.13,12.3,53,11,16.5,0.00190,0.00257,35.1,35.7,9,466,0,.,6.89,0.00,0.00
15min,AgWx,beryljct,423,04FEB2021:15:30:00,42.8,14.16,37.4,37.5,37.5,38.4,37.0,48,49,47,0.361,19.6,21.1,18.8,12.63,12.3,49,13,18.0,0.00183,0.00251,35.5,35.7,9,440,0,.,6.88,0.00,0.00
15min,AgWx,beryljct,423,04FEB2021:15:45:00,42.9,14.07,39.7,38.2,37.7,38.4,37.2,48,49,47,0.384,19.8,20.9,18.7,10.15,11.5,60,11,16.1,0.00172,0.00237,35.8,35.7,10,402,0,.,6.88,0.00,0.00
15min,AgWx,beryljct,423,04FEB2021:16:00:00,43.0,14.08,37.3,37.7,37.6,38.6,37.0,47,50,46,0.358,19.3,21.4,18.3,10.11,11.4,50,11,14.6,0.00160,0.00225,36.1,35.7,10,362,0,.,6.88,0.00,0.00
15min,AgWx,beryljct,423,04FEB2021:16:15:00,42.9,14.1,37.6,37.2,37.4,38.0,36.9,47,48,46,0.350,18.8,19.9,18.1,11.71,11.1,63,9.2,15.6,0.00146,0.00209,36.4,35.7,10,320,0,.,6.88,0.00,0.00
15min,AgWx,beryljct,423,04FEB2021:16:30:00,42.7,14.07,37.8,37.0,37.4,38.1,37.0,47,48,45,0.346,18.8,20.0,17.8,8.83,10.8,58,12,15.5,0.00132,0.00193,36.6,35.7,10,277,0,.,6.88,0.00,0.00
15min,AgWx,beryljct,423,04FEB2021:16:45:00,42.4,14.15,37.1,36.9,37.2,37.5,36.9,47,48,45,0.339,18.6,19.2,17.7,9.25,11.3,53,11,14.1,0.00118,0.00180,36.8,35.8,10,232,0,.,6.88,0.00,0.00
15min,AgWx,beryljct,423,04FEB2021:17:00:00,42.0,14.11,36.9,36.6,36.9,37.3,36.6,46,48,46,0.341,18.2,19.2,17.6,10.02,11.0,59,11,14.6,0.00103,0.00163,37.0,35.8,10,188,0,.,6.88,0.00,0.00
15min,AgWx,beryljct,423,04FEB2021:17:15:00,41.3,14.12,36.5,36.2,36.4,36.7,36.2,47,49,46,0.356,18.3,19.0,17.7,10.7,10.8,65,9.5,14.5,0.00039,0.00045,37.1,35.9,10,145,0,.,6.88,0.00,0.00
15min,AgWx,beryljct,423,04FEB2021:17:30:00,40.5,14.17,35.6,35.5,35.8,36.2,35.4,49,50,48,0.346,18.5,19.0,18.2,7.366,9.1,65,9.6,12.7,0.00032,0.00038,37.1,35.9,10,105,0,.,6.88,0.00,0.00
15min,AgWx,beryljct,423,04FEB2021:17:45:00,39.4,13.2,34.5,34.2,34.9,35.5,34.2,51,53,49,0.352,18.7,19.2,18.3,7.782,7.3,68,8.2,10.5,0.00023,0.00028,37.1,36.0,10,59,0,.,6.88,0.00,0.00
15min,AgWx,beryljct,423,04FEB2021:18:00:00,37.6,13.07,32.5,32.9,33.6,34.2,32.7,54,56,52,0.354,18.6,18.9,18.4,4.45,6.7,62,10,9.3,0.00015,0.00019,37.1,36.0,10,10,0,.,6.88,0.00,0.00
15min,AgWx,beryljct,423,04FEB2021:18:15:00,35.6,13,31.8,31.5,32.0,32.8,31.4,58,60,56,0.354,18.9,19.1,18.7,4.911,4.8,51,6.1,6.5,0.00006,0.00009,37.0,36.1,10,4,0,.,6.88,0.00,0.00
15min,AgWx,beryljct,423,04FEB2021:18:30:00,33.7,12.96,30.6,30.3,30.7,31.5,30.3,61,63,59,0.355,19.0,19.2,18.7,2.499,3.6,39,7.7,5.2,0.00000,0.00002,36.9,36.1,10,0,0,.,6.88,0.00,0.00
15min,AgWx,beryljct,423,04FEB2021:18:45:00,32.3,12.95,29.9,29.8,30.1,30.4,29.7,62,63,62,0.353,18.8,19.0,18.6,3.968,3.9,49,7.4,5.5,0.00001,0.00003,36.7,36.2,10,0,0,.,6.88,0.00,0.00
15min,AgWx,beryljct,423,04FEB2021:19:00:00,31.1,12.93,29.5,28.8,29.3,29.9,28.7,64,66,63,0.352,18.7,18.9,18.6,2.894,3.4,40,7.1,4.9,-0.00002,-0.00000,36.6,36.2,10,0,0,.,6.88,0.00,0.00
15min,AgWx,beryljct,423,04FEB2021:19:15:00,30.1,12.91,29.8,29.3,29.1,29.3,28.7,64,66,63,0.345,18.5,18.8,18.2,2.258,2.2,58,11,3.8,-0.00007,-0.00008,36.5,36.3,10,0,0,.,6.88,0.00,0.00
15min,AgWx,beryljct,423,04FEB2021:19:30:00,29.3,12.9,29.2,28.4,28.7,29.4,28.3,65,66,63,0.350,18.3,18.6,18.0,3.398,3.0,29,8.1,4.0,-0.00003,-0.00003,36.3,36.3,10,0,0,.,6.88,0.00,0.00
15min,AgWx,beryljct,423,04FEB2021:19:45:00,28.9,12.88,29.7,29.2,28.7,29.2,28.4,65,66,63,0.347,18.5,18.7,18.2,3.486,3.3,13,12,4.7,-0.00002,-0.00001,36.2,36.3,10,0,0,.,6.89,0.00,0.00
15min,AgWx,beryljct,423,04FEB2021:20:00:00,28.6,12.88,28.0,27.7,28.4,29.2,27.7,68,70,63,0.360,19.0,19.5,18.3,4.297,3.9,349,9.5,4.8,-0.00001,0.00000,36.1,36.4,10,0,0,.,6.89,0.00,0.00
15min,AgWx,beryljct,423,04FEB2021:20:15:00,28.3,12.87,28.0,27.5,27.3,27.7,26.9,71,72,70,0.361,19.2,19.6,19.0,4.275,3.9,323,11,4.7,-0.00002,-0.00001,36.0,36.4,10,0,0,.,6.89,0.00,0.00
15min,AgWx,beryljct,423,04FEB2021:20:30:00,27.9,12.86,28.7,28.2,27.4,28.2,26.7,70,71,68,0.357,18.8,19.3,18.4,1.381,4.2,298,19,6.9,-0.00001,0.00000,35.9,36.4,10,0,0,.,6.89,0.00,0.00
15min,AgWx,beryljct,423,04FEB2021:20:45:00,27.8,12.85,28.5,28.2,28.4,28.8,28.1,67,68,65,0.356,18.8,19.2,18.5,4.165,4.3,334,18,5.7,0.00000,0.00002,35.8,36.4,10,0,0,.,6.89,0.00,0.00
15min,AgWx,beryljct,423,04FEB2021:21:00:00,27.7,12.84,28.0,27.6,27.8,28.4,27.3,69,72,67,0.354,19.1,19.4,18.5,1.907,3.1,332,10,4.8,-0.00004,-0.00004,35.6,36.4,10,0,0,.,6.89,0.00,0.00
15min,AgWx,beryljct,423,04FEB2021:21:15:00,27.3,12.83,28.3,28.0,27.9,28.4,27.4,68,70,65,0.340,18.6,19.2,17.9,2.061,1.6,311,15,2.7,-0.00010,-0.00013,35.5,36.4,10,0,0,.,6.89,0.00,0.00
15min,AgWx,beryljct,423,04FEB2021:21:30:00,26.9,12.83,28.5,28.3,27.9,28.5,27.3,66,68,64,0.338,18.1,18.5,17.7,1.841,2.3,316,24,3.9,-0.00007,-0.00007,35.5,36.4,10,0,0,.,6.89,0.00,0.00
15min,AgWx,beryljct,423,04FEB2021:21:45:00,26.7,12.83,27.5,26.9,27.4,28.2,26.8,68,70,64,0.348,18.4,18.7,17.8,2.696,3.3,325,8.5,4.5,-0.00003,-0.00003,35.4,36.4,10,0,0,.,6.89,0.00,0.00
15min,AgWx,beryljct,423,04FEB2021:22:00:00,26.3,12.82,27.7,27.8,27.1,27.9,26.4,69,71,65,0.338,18.4,18.7,17.7,2.389,2.0,337,21,3.7,-0.00008,-0.00010,35.3,36.4,10,0,0,.,6.89,0.00,0.00
15min,AgWx,beryljct,423,04FEB2021:22:15:00,26.1,12.81,27.6,26.8,26.8,27.7,26.2,69,71,66,0.340,18.0,18.4,17.6,2.872,2.4,328,11,3.4,-0.00006,-0.00007,35.2,36.4,10,0,0,.,6.90,0.00,0.00
15min,AgWx,beryljct,423,04FEB2021:22:30:00,25.8,12.8,25.9,26.2,26.7,27.2,26.0,68,71,67,0.335,17.7,18.1,17.3,3.771,3.7,311,5.6,4.9,-0.00002,-0.00001,35.1,36.4,10,0,0,.,6.90,0.00,0.00
15min,AgWx,beryljct,423,04FEB2021:22:45:00,25.5,12.78,23.4,23.4,24.7,26.1,23.4,76,81,70,0.347,18.3,18.8,17.7,2.959,3.2,325,11,4.2,-0.00005,-0.00005,35.0,36.4,10,0,0,.,6.90,0.00,0.00
15min,AgWx,beryljct,423,04FEB2021:23:00:00,25.0,12.79,24.6,24.0,24.3,24.8,23.3,78,81,76,0.344,18.4,18.7,18.0,4.691,4.2,313,5.6,4.9,-0.00003,-0.00003,34.9,36.3,10,0,0,.,6.90,0.00,0.00
15min,AgWx,beryljct,423,04FEB2021:23:15:00,24.7,12.79,24.0,23.6,23.9,24.2,23.5,80,83,78,0.358,18.7,19.2,18.3,4.209,4.8,312,4.3,5.7,-0.00003,-0.00002,34.9,36.3,10,0,0,.,6.90,0.00,0.00
15min,AgWx,beryljct,423,04FEB2021:23:30:00,24.4,12.78,25.4,24.5,23.7,24.5,23.3,82,84,79,0.355,19.0,19.2,18.7,4.691,5.0,301,6.0,6.2,-0.00003,-0.00002,34.8,36.3,11,0,0,.,6.90,0.00,0.00
15min,AgWx,bigpiney,439,04FEB2021:00:00:00,3.5,12.6,6.1,3.9,4.1,5.7,1.2,77,82,72,0.138,-1.4,0.4,-5.6,4.012,2.9,276,29,7.3,0.00001,0.00001,24.0,28.5,9,0,0,0.0,0.16,0.00,0.00
15min,AgWx,bigpiney,439,04FEB2021:00:15:00,3.5,12.59,5.8,3.4,5.8,7.1,3.0,75,79,69,0.127,-0.6,1.5,-4.7,0,1.9,278,22,5.9,0.00000,0.00001,23.8,28.5,9,0,0,0.0,0.16,0.00,0.00
15min,AgWx,bigpiney,439,04FEB2021:00:30:00,3.5,12.59,6.6,3.8,3.8,6.3,0.8,75,80,69,0.141,-2.3,1.0,-6.9,1.14,2.0,245,32,4.6,0.00000,0.00000,23.6,28.4,9,0,0,0.0,0.16,0.00,0.00
15min,AgWx,bigpiney,439,04FEB2021:00:45:00,3.3,12.58,-2.5,-3.1,0.8,4.3,-3.1,76,81,70,0.096,-5.1,-1.0,-9.6,3.902,3.5,236,14,5.3,0.00001,0.00002,23.4,28.4,9,0,0,0.0,0.16,0.00,0.00
15min,AgWx,bigpiney,439,04FEB2021:01:00:00,2.9,12.57,-0.2,-2.5,-2.6,1.0,-4.5,78,84,74,0.108,-7.6,-2.7,-10.6,0,2.1,241,52,5.0,0.00000,0.00000,23.2,28.3,9,0,0,0.0,0.16,0.00,0.00
15min,AgWx,bigpiney,439,04FEB2021:01:15:00,2.1,12.56,4.2,1.4,-1.9,1.4,-3.8,81,85,79,0.134,-6.3,-2.5,-8.5,0,1.1,192,44,6.6,-0.00001,-0.00001,23.1,28.3,9,0,0,0.0,0.16,0.00,0.00
15min,AgWx,bigpiney,439,04FEB2021:01:30:00,1.6,12.56,-0.4,-1.9,0.2,4.0,-2.9,79,83,73,0.113,-4.7,-0.6,-8.5,3.814,2.9,50,94,6.6,0.00000,0.00001,22.9,28.2,9,0,0,0.0,0.16,0.00,0.00
15min,AgWx,bigpiney,439,04FEB2021:01:45:00,1.3,12.55,1.3,-0.4,-0.2,1.7,-2.0,82,85,80,0.125,-4.3,-1.7,-6.7,4.56,2.2,330,41,7.4,-0.00000,-0.00000,22.7,28.2,8,0,0,0.0,0.16,0.00,0.00
15min,AgWx,bigpiney,439,04FEB2021:02:00:00,1.1,12.54,0.2,-1.1,-1.4,-0.3,-3.1,84,87,82,0.123,-5.0,-3.8,-7.2,3.201,2.8,340,29,6.4,-0.00000,0.00000,22.5,28.2,8,0,0,0.0,0.16,0.00,0.00
15min,AgWx,bigpiney,439,04FEB2021:02:15:00,0.9,12.52,1.4,-0.7,-1.5,-0.4,-2.8,86,88,84,0.127,-4.7,-3.1,-6.5,0.526,2.4,279,30,4.5,-0.00000,-0.00000,22.4,28.1,8,0,0,0.0,0.16,0.00,0.00
15min,AgWx,bigpiney,439,04FEB2021:02:30:00,0.8,12.53,1.2,0.2,-0.1,0.3,-0.7,87,88,85,0.133,-3.1,-2.6,-4.0,1.425,1.7,24,26,3.1,-0.00001,-0.00001,22.2,27.9,8,0,0,0.0,0.16,0.00,0.00
15min,AgWx,bigpiney,439,04FEB2021:02:45:00,0.7,12.53,0.9,-0.8,-0.6,0.2,-1.3,87,88,86,0.128,-3.5,-2.6,-4.4,0.68,0.6,165,63,3.6,-0.00002,-0.00003,22.1,27.9,8,0,0,0.0,0.16,0.00,0.00
15min,AgWx,bigpiney,439,04FEB2021:03:00:00,0.8,12.52,-2.7,-0.6,0.1,1.3,-1.7,87,89,84,0.128,-2.9,-1.3,-5.5,1.14,1.2,269,24,3.4,-0.00002,-0.00002,21.9,27.8,8,0,0,0.0,0.16,0.00,0.00
15min,AgWx,bigpiney,439,04FEB2021:03:15:00,1.0,12.52,2.9,1.0,-0.5,1.1,-2.3,87,88,84,0.139,-3.6,-1.7,-5.9,1.162,0.7,230,21,2.0,-0.00002,-0.00003,21.7,27.8,8,0,0,0.0,0.16,0.00,0.00
15min,AgWx,bigpiney,439,04FEB2021:03:30:00,1.5,12.5,2.6,1.5,1.9,2.5,1.1,86,87,84,0.137,-1.2,-0.6,-2.2,2.872,1.5,229,15,3.0,-0.00001,-0.00002,21.6,27.7,8,0,0,0.0,0.16,0.00,0.00
15min,AgWx,bigpiney,439,04FEB2021:03:45:00,2.2,12.49,4.1,2.0,2.0,2.7,1.4,85,86,84,0.140,-1.6,-0.6,-2.3,3.003,2.2,203,18,3.7,-0.00001,-0.00000,21.5,27.7,8,0,0,0.0,0.16,0.00,0.00
15min,AgWx,bigpiney,439,04FEB2021:04:00:00,2.8,12.49,4.2,3.0,2.4,3.1,1.8,84,85,84,0.147,-1.2,-0.5,-2.0,1.535,0.7,281,52,2.9,-0.00002,-0.00003,21.4,27.5,8,0,0,0.0,0.16,0.00,0.00
15min,AgWx,bigpiney,439,04FEB2021:04:15:00,3.2,12.49,3.7,1.8,2.1,2.9,1.4,84,85,83,0.139,-1.6,-0.7,-2.4,0,1.0,326,77,2.2,-0.00002,-0.00002,21.3,27.5,8,0,0,0.0,0.16,0.00,0.00
15min,AgWx,bigpiney,439,04FEB2021:04:30:00,3.3,12.49,2.0,0.2,1.5,2.3,0.1,85,86,84,0.129,-2.0,-1.0,-3.5,1.271,0.8,55,36,2.8,-0.00002,-0.00003,21.3,27.4,8,0,0,0.0,0.16,0.00,0.00
15min,AgWx,bigpiney,439,04FEB2021:04:45:00,3.1,12.47,2.2,0.2,-0.2,0.3,-0.8,86,87,85,0.134,-3.5,-2.6,-4.2,3.464,1.1,178,31,3.5,-0.00002,-0.00002,21.2,27.4,8,0,0,0.0,0.16,0.00,0.00
15min,AgWx,bigpiney,439,04FEB2021:05:00:00,2.8,12.47,3.4,1.6,0.9,1.6,0.2,88,88,87,0.143,-1.9,-1.3,-2.7,3.442,2.2,229,8.7,3.4,-0.00001,-0.00001,21.2,27.3,8,0,0,0.0,0.16,0.00,0.00
15min,AgWx,bigpiney,439,04FEB2021:05:15:00,2.7,12.46,2.9,1.8,2.1,2.6,1.5,87,88,85,0.141,-1.0,-0.5,-1.7,0.833,2.9,216,12,4.0,-0.00000,-0.00000,21.1,27.3,8,0,0,0.0,0.16,0.00,0.00
15min,AgWx,bigpiney,439,04FEB2021:05:30:00,2.8,12.46,3.9,1.0,1.5,3.5,-0.1,85,87,83,0.135,-2.0,0.4,-3.9,2.718,1.4,182,66,5.2,-0.00001,-0.00002,21.0,27.1,8,0,0,0.0,0.16,0.00,0.00
15min,AgWx,bigpiney,439,04FEB2021:05:45:00,2.9,12.44,1.6,0.5,-0.1,1.2,-1.0,85,87,83,0.133,-3.6,-1.7,-4.8,1.776,1.9,302,31,4.0,-0.00001,-0.00001,21.0,27.1,8,0,0,0.0,0.16,0.00,0.00
15min,AgWx,bigpiney,439,04FEB2021:06:00:00,2.9,12.43,7.0,4.5,1.8,4.8,-0.2,86,87,84,0.162,-1.5,1.8,-3.9,5.612,4.3,247,14,6.1,0.00001,0.00001,20.9,27.0,8,0,0,0.0,0.16,0.00,0.00
15min,AgWx,bigpiney,439,04FEB2021:06:15:00,3.1,12.44,6.2,6.4,6.6,8.1,4.6,86,87,83,0.169,3.3,5.0,1.4,4.713,4.3,231,9.1,5.7,0.00001,0.00001,20.8,27.0,8,0,0,0.0,0.16,0.00,0.00
15min,AgWx,bigpiney,439,04FEB2021:06:30:00,3.7,12.42,6.6,4.7,6.5,8.9,4.4,85,89,81,0.160,2.9,6.1,0.7,4.538,3.5,188,23,6.4,0.00000,0.00001,20.8,26.9,8,0,0,0.0,0.16,0.00,0.00
15min,AgWx,bigpiney,439,04FEB2021:06:45:00,4.0,12.42,12.9,8.7,4.1,8.7,0.5,87,93,82,0.210,1.0,7.0,-3.5,2.894,3.5,168,19,6.1,0.00000,0.00000,20.7,26.9,8,0,0,0.0,0.16,0.00,0.00
15min,AgWx,bigpiney,439,04FEB2021:07:00:00,3.9,12.41,2.5,-1.1,2.4,9.6,-1.8,85,93,79,0.124,-1.2,7.8,-5.7,0,2.0,59,74,8.3,-0.00001,-0.00001,20.7,26.8,8,0,0,0.0,0.16,0.00,0.00
15min,AgWx,bigpiney,439,04FEB2021:07:15:00,3.5,12.41,1.0,-1.0,-0.8,0.5,-2.7,86,88,83,0.124,-4.0,-2.2,-6.7,0,2.3,305,45,6.2,-0.00001,-0.00000,20.6,26.9,8,0,0,0.0,0.16,0.00,0.00
15min,AgWx,bigpiney,439,04FEB2021:07:30:00,2.8,12.47,-1.6,-3.9,-3.3,-1.0,-5.2,85,86,83,0.108,-6.8,-4.2,-9.1,3.529,2.7,154,34,7.3,0.00000,0.00000,20.6,26.7,8,3,0,0.0,0.16,0.00,0.00
15min,AgWx,bigpiney,439,04FEB2021:07:45:00,1.9,14.99,-0.1,-1.1,-2.8,-0.5,-5.0,87,89,85,0.125,-5.8,-3.1,-8.4,4.209,2.2,141,30,4.5,0.00001,0.00001,20.5,26.7,8,26,0,0.0,0.16,0.00,0.00
15min,AgWx,bigpiney,439,04FEB2021:08:00:00,1.5,14.99,-1.1,-2.2,-0.4,1.1,-2.2,87,89,83,0.114,-3.3,-1.4,-6.0,1.535,3.3,205,17,5.1,-0.00004,-0.00003,20.4,26.6,8,46,0,0.0,0.16,0.00,0.00
15min,AgWx,bigpiney,439,04FEB2021:08:15:00,1.6,14.99,3.7,2.7,1.4,4.7,-2.7,88,91,83,0.149,-1.4,2.5,-6.6,5.042,2.5,200,23,5.2,-0.00000,0.00001,20.3,26.6,8,80,0,0.0,0.16,0.00,0.00
15min,AgWx,bigpiney,439,04FEB2021:08:30:00,2.1,14.99,7.8,4.4,0.9,4.4,-1.0,86,89,83,0.166,-2.3,2.0,-4.8,4.823,4.9,207,12,6.0,0.00007,0.00010,20.3,26.5,8,114,0,0.0,0.16,0.00,0.00
15min,AgWx,bigpiney,439,04FEB2021:08:45:00,3.3,14.98,2.4,1.5,5.2,8.4,0.8,87,90,80,0.135,2.1,6.1,-4.0,2.784,4.4,234,41,6.2,0.00015,0.00018,20.2,26.5,8,155,0,0.0,0.16,0.00,0.00
15min,AgWx,bigpiney,439,04FEB2021:09:00:00,4.8,15,1.6,-1.2,-1.8,1.4,-3.2,83,85,81,0.122,-5.7,-2.5,-7.4,3.266,3.5,133,16,5.9,0.00017,0.00020,20.2,26.4,8,184,0,0.0,0.16,0.00,0.00